Aérodrome :
LOGIN :

S'inscrire | Disclaimer

   EN    FR    IT 

 










Légende :    VFR   VFR Marginal   IFR   IFR Intensif   IFR Très Intensif
Visi : 
Plafond : 
>= 8 km
>= 3000ft
5 à 8 km
1000 à 3000 ft
1500m à 5 km
500 à 1000 ft
800 à 1500m
200 à 500 ft
< 800m
< 200 ft
Symboles :   Orages  Brouillard  Fortes neiges  Fortes précipitations  Vent > 20 kt
SIGMETs :   Divers  Orages  Givrage  Turbulence  Onde Orograph.  Cendres Volcan.







- Altitude de l'aérodrome : 106 ft
- Code IATA : XDA
- Voir les cartes d'approche


LFBY - Dax Seyresse

DERNIER METAR :
  • 201400Z 11007KT 070V140 CAVOK 22/09 Q1020

METARs EXPIRÉS :
  • 201300Z 09006KT 330V140 CAVOK 22/09 Q1020
  • 201200Z 10006KT 030V150 CAVOK 20/10 Q1021

TAF TAF LFBY
Valide du 20 à 09h jusqu'au 20 à 18h UTC


200800Z 2009/2018 08005KT 5000 BR FEW003
BECMG 2010/2012 09010KT CAVOK
Pas de NOTAMs connus pour ce terrain.



MET'MAP, la Météo Aéronautique d'un coup d'oeil ! - Copyright ORBIFLY Décembre 2007 - Disclaimer

ORBIFLY MET'MAP TEAM :

Programmation & Développement : Alexandra Zaïnal
Conception & Développement : Baudouin d'Aumeries
Co-Programmation & Développement : Marc-Olivier Méhu
Soutien technique & logistique : Manuel Goepfert

Contact : metmap@orbifly.com




SOURCES & CREDITS :

   NOAA